Location: Dodgeville, WI 53533, USA
(43.0344°N, 90.0900°W)
Time: 14:26:40
(UTC-05:00)

Envisat - Visible Passes

Search period start: 21 August 2018 00:00
Search period end: 31 August 2018 00:00
Orbit: 764 x 766 km, 98.2° (Epoch: 21 August)

Date Brightness Start Highest point End Pass type
(mag) Time Alt. Az. Time Alt. Az. Time Alt. Az.
21 Aug 3.6 20:21:52 10° S 20:26:52 61° W 20:31:56 10° NNW visible
22 Aug 5.7 21:26:29 10° SW 21:29:36 16° W 21:32:44 10° NW visible
23 Aug 4.6 20:47:55 10° SSW 20:52:32 35° W 20:57:11 10° NNW visible
24 Aug 3.2 20:10:37 10° S 20:15:41 77° WSW 20:20:48 10° NNW visible
25 Aug 5.5 21:14:35 10° SW 21:18:19 20° W 21:22:04 10° NW visible
26 Aug 4.2 20:36:29 10° S 20:41:19 44° W 20:46:11 10° NNW visible
27 Aug 5.9 21:42:34 10° WSW 21:44:11 11° W 21:45:49 10° WNW visible
28 Aug 5.2 21:02:52 10° SSW 21:07:03 26° W 21:11:15 10° NW visible
29 Aug 3.8 20:25:08 10° S 20:30:06 56° W 20:35:07 10° NNW visible
30 Aug 5.7 21:30:04 10° WSW 21:32:52 15° W 21:35:41 10° NW visible
